This is the latest recevied weather packets stored in our database for station/object KD9ZDW. If no packets are shown the sender has not sent any weather packets the latest 10 day(s).
| Time | Temp. | Humidity | Pressure | Rain* | Wind** | Luminosity | Snow |
|---|---|---|---|---|---|---|---|
| 1777985506 | 14.44° C | 85% | 1007.8 hPa | 0 mm | - | 72 W/m² | - |
| 1777985203 | 13.89° C | 85% | 1007.6 hPa | 0 mm | - | 89 W/m² | - |
| 1777984899 | 14.44° C | 86% | 1007.5 hPa | 0 mm | - | 80 W/m² | - |
| 1777984595 | 13.89° C | 85% | 1007.5 hPa | 0 mm | - | 146 W/m² | - |
| 1777984292 | 13.89° C | 86% | 1007.8 hPa | 0 mm | - | 114 W/m² | - |
| 1777983989 | 13.89° C | 86% | 1007.9 hPa | 0 mm | - | 131 W/m² | - |
| 1777983686 | 13.89° C | 86% | 1008 hPa | 0 mm | - | 79 W/m² | - |
| 1777983382 | 13.89° C | 86% | 1008.1 hPa | 0 mm | - | 73 W/m² | - |
| 1777983079 | 13.89° C | 86% | 1008.1 hPa | 0 mm | - | 66 W/m² | - |
| 1777982775 | 13.89° C | 86% | 1008.1 hPa | 0 mm | - | 76 W/m² | - |
| 1777982471 | 13.89° C | 86% | 1008.2 hPa | 0 mm | - | 83 W/m² | - |
| 1777982166 | 13.89° C | 86% | 1008 hPa | 0 mm | - | 61 W/m² | - |
| 1777981864 | 13.89° C | 86% | 1008.4 hPa | 0 mm | - | 62 W/m² | - |
| 1777981561 | 13.89° C | 86% | 1008.1 hPa | 0 mm | - | 71 W/m² | - |
| 1777981257 | 13.89° C | 86% | 1008.1 hPa | 1.27 mm | - | 57 W/m² | - |
| 1777980953 | 13.33° C | 86% | 1008.2 hPa | 1.27 mm | - | 43 W/m² | - |
| 1777980650 | 13.33° C | 87% | 1008.1 hPa | 0 mm | - | 34 W/m² | - |
| 1777980347 | 13.33° C | 87% | 1008 hPa | 0 mm | - | 11 W/m² | - |
| 1777980045 | 13.33° C | 88% | 1007.9 hPa | 0 mm | - | 15 W/m² | - |
| 1777979744 | 13.33° C | 88% | 1007.8 hPa | 0 mm | - | 15 W/m² | - |
| 1777979440 | 13.33° C | 88% | 1007.8 hPa | 0 mm | - | 9 W/m² | - |
| 1777979137 | 13.33° C | 88% | 1007.7 hPa | 0 mm | - | 9 W/m² | - |
| 1777978833 | 12.78° C | 88% | 1007.7 hPa | 0 mm | - | 5 W/m² | - |
| 1777978530 | 12.78° C | 89% | 1007.5 hPa | 0 mm | - | 4 W/m² | - |
| 1777978226 | 12.78° C | 89% | 1007.4 hPa | 0 mm | - | 3 W/m² | - |
* Rain latest hour (hover to see other rain measurements)
** Current wind speed in m/s (hover to see current wind gust speed)